Alabaster, AL

10:16 AM CST on December 05, 2016 (GMT -0600)
Shelby County

Weather History for KEET - September, 2012

Change the Weather History Date:

Wednesday, September 5, 2012

  Actual Average Record
Temperature  
Mean Temperature 80 °F 78 °F  
Max Temperature 87 °F 88 °F 98 °F (1999)
Min Temperature 72 °F 67 °F 55 °F (1978)
Degree Days  
Heating Degree Days 0 0  
Month to date heating degree days 0 0  
Since 1 July heating degree days 0 0  
Cooling Degree Days 15 13  
Month to date cooling degree days 71 65  
Year to date cooling degree days 1990 1663  
Growing Degree Days 30 (Base 50)    
Moisture  
Dew Point 72 °F    
Average Humidity 78    
Maximum Humidity 94    
Minimum Humidity 61    
Precipitation  
Precipitation 0.01 in 0.13 in 3.14 in (2011)
Month to date precipitation 0.61 0.66  
Year to date precipitation 40.41 38.74  
Sea Level Pressure  
Sea Level Pressure 29.90 in    
Wind  
Wind Speed 2 mph (SE)    
Max Wind Speed 8 mph    
Max Gust Speed 13 mph    
Visibility 10 miles    
Events      
T = Trace of Precipitation, MM = Missing Value Source: NWS Daily Summary

Daily Weather History Graph

Daily Weather History Graph

Search for Another Location

Airport or City:

Trip Planner

Search our weather history database for the weather conditions in past years. The results will help you decide how hot, cold, wet, or windy it might be!

Date:

Astronomy

Sep. 05, 2012 Rise Set
Actual Time 6:24 AM CDT 7:06 PM CDT
Civil Twilight 5:59 AM CDT 7:31 PM CDT
Nautical Twilight 5:29 AM CDT 8:00 PM CDT
Astronomical Twilight 4:59 AM CDT 8:30 PM CDT
Moon 9:55 PM CDT 11:08 AM CDT
Length of Visible Light 13h 32m
Length of Day
12h 41m
Waning Gibbous, 76% of the Moon is Illuminated
Sep 5
Waning Gibbous
Sep 8
Last Quarter
Sep 15
New
Sep 22
First Quarter
Sep 29
Full

Hourly Weather History & Observations

Time (CDT) Temp. Heat Index Dew Point Humidity Pressure Visibility Wind Dir Wind Speed Gust Speed Precip Events Conditions
12:53 AM 73.0 °F - 71.1 °F 93% 29.88 in 8.0 mi Calm Calm - N/A   Overcast
1:29 AM 73.4 °F - 71.6 °F 94% 29.90 in 7.0 mi Calm Calm - N/A   Overcast
1:53 AM 73.0 °F - 71.1 °F 93% 29.87 in 8.0 mi Calm Calm - N/A   Mostly Cloudy
2:53 AM 73.0 °F - 71.1 °F 93% 29.88 in 10.0 mi SE 3.5 mph - N/A   Overcast
3:53 AM 73.0 °F - 70.0 °F 90% 29.89 in 10.0 mi Calm Calm - N/A   Overcast
4:00 AM 73.4 °F - 69.8 °F 88% 29.91 in 10.0 mi SE 3.5 mph - N/A   Overcast
4:53 AM 73.0 °F - 70.0 °F 90% 29.89 in 10.0 mi Calm Calm - N/A   Overcast
5:34 AM 73.4 °F - 69.8 °F 88% 29.92 in 10.0 mi Calm Calm - N/A   Overcast
5:53 AM 73.0 °F - 70.0 °F 90% 29.90 in 10.0 mi Calm Calm - N/A   Overcast
6:53 AM 73.0 °F - 70.0 °F 90% 29.91 in 9.0 mi Calm Calm - N/A   Overcast
7:23 AM 73.4 °F - 69.8 °F 88% 29.93 in 9.0 mi Calm Calm - N/A   Mostly Cloudy
7:53 AM 75.0 °F - 71.1 °F 87% 29.92 in 10.0 mi Calm Calm - N/A   Overcast
8:37 AM 77.0 °F - 71.6 °F 83% 29.95 in 10.0 mi Variable 4.6 mph - N/A   Scattered Clouds
8:53 AM 77.0 °F - 71.1 °F 82% 29.93 in 10.0 mi Calm Calm - N/A   Mostly Cloudy
9:53 AM 78.1 °F - 71.1 °F 79% 29.93 in 10.0 mi Variable 4.6 mph - N/A   Overcast
10:53 AM 79.0 °F - 71.1 °F 77% 29.94 in 10.0 mi Calm Calm - N/A   Overcast
11:53 AM 81.0 °F 85.2 °F 72.0 °F 74% 29.93 in 10.0 mi Variable 3.5 mph - N/A   Overcast
12:53 PM 84.0 °F 90.2 °F 73.0 °F 69% 29.91 in 10.0 mi Variable 3.5 mph - N/A   Mostly Cloudy
1:03 PM 84.2 °F 90.9 °F 73.4 °F 70% 29.93 in 10.0 mi Calm Calm - N/A   Mostly Cloudy
1:11 PM 84.2 °F 89.6 °F 71.6 °F 66% 29.93 in 10.0 mi East 3.5 mph - N/A   Mostly Cloudy
1:53 PM 84.9 °F 90.7 °F 72.0 °F 65% 29.89 in 10.0 mi East 5.8 mph - N/A   Mostly Cloudy
2:53 PM 84.9 °F 90.7 °F 72.0 °F 65% 29.87 in 10.0 mi SE 5.8 mph - N/A   Partly Cloudy
3:53 PM 87.1 °F 94.5 °F 73.0 °F 63% 29.87 in 10.0 mi Calm Calm - N/A   Scattered Clouds
4:04 PM 84.2 °F 89.6 °F 71.6 °F 66% 29.89 in 10.0 mi SE 4.6 mph - N/A   Mostly Cloudy
4:15 PM 86.0 °F 91.8 °F 71.6 °F 62% 29.89 in 10.0 mi SE 5.8 mph - N/A   Scattered Clouds
4:53 PM 86.0 °F 91.5 °F 71.1 °F 61% 29.87 in 10.0 mi Variable 5.8 mph - N/A   Clear
5:53 PM 84.9 °F 90.1 °F 71.1 °F 63% 29.86 in 10.0 mi SSE 4.6 mph - N/A   Clear
6:53 PM 80.1 °F 83.8 °F 72.0 °F 76% 29.86 in 10.0 mi Calm Calm - N/A   Clear
7:53 PM 78.1 °F - 73.9 °F 87% 29.87 in 10.0 mi Calm Calm - N/A   Clear
8:53 PM 75.9 °F - 73.0 °F 91% 29.88 in 10.0 mi Calm Calm - N/A   Clear
9:53 PM 75.0 °F - 73.0 °F 94% 29.90 in 10.0 mi Calm Calm - N/A   Clear
10:53 PM 75.0 °F - 72.0 °F 90% 29.90 in 10.0 mi Calm Calm - N/A   Clear
11:53 PM 75.0 °F - 73.0 °F 94% 29.91 in 8.0 mi Calm Calm - N/A   Clear